Date String (YYYY-MM-DD hh:mm:ss) UTC,Instrument flags,Ambient pressure (hPa),Sample flow (lpm),Bypass flow (lpm),Sample temperature (°C),Ambient temperature (°C),ASC tube jacket temperature (°C),LED temperature (°C),Box temperature (°C),Sample RH (%),Span deviation,Mass concentration (μg/m³),Mass concentration (μg/m³),Mass concentration (μg/m³)
DateTimeUTC,F1_M11,P_M11,Q1_M11,Q2_M11,T1_M11,T2_M11,T3_M11,T4_M11,T5_M11,U1_M11,ZSPAN_M11,X0_M11,X2_M11,X1_M11
2022-01-26 22:00:00,,0823.7,5.02,0.00,25.1,24.3,00.0,33.9,27.0,07.5,0000.0,0007.92,0005.01,0004.73
2022-01-26 22:01:00,,0823.7,4.99,0.00,25.1,24.3,00.0,33.9,27.0,07.4,0000.0,0008.50,0004.99,0004.72
2022-01-26 22:02:00,,0823.7,5.00,0.00,25.1,24.3,00.0,33.9,27.0,07.5,0000.0,0008.72,0005.01,0004.72
2022-01-26 22:03:00,,0823.7,5.00,0.00,25.1,24.3,00.0,33.9,27.0,07.4,0000.0,0008.83,0005.00,0004.71
2022-01-26 22:04:00,,0823.7,5.00,0.00,25.1,24.3,00.0,33.9,27.0,07.3,0000.0,0008.85,0004.99,0004.69
2022-01-26 22:05:00,,0823.7,5.00,0.00,25.1,24.3,00.0,33.9,27.0,07.2,0000.0,0008.79,0004.96,0004.66
2022-01-26 22:06:00,,0823.7,5.00,0.00,25.1,24.3,00.0,33.9,27.0,07.3,0000.0,0008.73,0004.91,0004.62
2022-01-26 22:07:00,,0823.7,5.01,0.00,25.1,24.3,00.0,33.9,27.0,07.2,0000.0,0008.70,0004.88,0004.59
2022-01-26 22:08:00,,0823.7,4.99,0.00,25.1,24.3,00.0,33.9,27.0,07.4,0000.0,0008.83,0004.84,0004.56
2022-01-26 22:09:00,,0823.8,4.99,0.00,25.1,24.3,00.0,33.9,27.0,07.3,0000.0,0008.77,0004.81,0004.53
2022-01-26 22:10:00,,0823.8,5.00,0.00,25.1,24.3,00.0,33.9,27.0,07.4,0000.0,0008.63,0004.74,0004.51
2022-01-26 22:11:00,,0823.8,4.99,0.00,25.1,24.3,00.0,33.9,27.0,07.2,0000.0,0008.33,0004.66,0004.46
2022-01-26 22:12:00,,0823.8,5.01,0.00,25.1,24.3,00.0,33.9,27.0,07.3,0000.0,0007.58,0004.63,0004.43
2022-01-26 22:13:00,,0823.8,4.99,0.00,25.1,24.3,00.0,33.9,27.0,07.4,0000.0,0007.44,0004.59,0004.40
2022-01-26 22:14:00,,0823.8,5.01,0.00,25.1,24.3,00.0,33.9,27.0,07.6,0000.0,0007.35,0004.56,0004.37
2022-01-26 22:15:00,,0823.9,5.00,0.00,25.1,24.3,00.0,33.9,27.0,07.7,0000.0,0007.28,0004.55,0004.36
2022-01-26 22:16:00,,0823.9,5.00,0.00,25.1,24.3,00.0,33.9,27.0,07.8,0000.0,0007.41,0004.59,0004.39
2022-01-26 22:17:00,,0823.9,5.01,0.00,25.1,24.3,00.0,33.9,27.0,08.0,0000.0,0007.47,0004.64,0004.44
2022-01-26 22:18:00,,0823.9,4.99,0.00,25.1,24.3,00.0,33.9,27.0,08.1,0000.0,0007.41,0004.71,0004.52
2022-01-26 22:19:00,,0823.9,5.02,0.00,25.1,24.3,00.0,33.9,27.0,08.2,0000.0,0007.34,0004.80,0004.61
2022-01-26 22:20:00,,0823.9,4.99,0.00,25.1,24.3,00.0,34.0,27.0,08.3,0000.0,0007.47,0004.93,0004.74
2022-01-26 22:21:00,,0824.0,5.01,0.00,25.1,24.3,00.0,34.0,26.9,08.2,0000.0,0007.64,0005.08,0004.88
2022-01-26 22:22:00,,0824.0,5.00,0.00,25.1,24.3,00.0,34.0,27.0,08.4,0000.0,0007.86,0005.23,0005.01
2022-01-26 22:23:00,,0824.0,5.00,0.00,25.1,24.3,00.0,34.0,27.0,08.5,0000.0,0007.99,0005.36,0005.13
2022-01-26 22:24:00,,0824.0,5.02,0.00,25.1,24.3,00.0,34.0,27.0,08.5,0000.0,0008.43,0005.45,0005.22
2022-01-26 22:25:00,,0824.0,4.99,0.00,25.1,24.3,00.0,34.0,27.0,08.4,0000.0,0008.91,0005.52,0005.30
2022-01-26 22:26:00,,0824.1,5.01,0.00,25.1,24.4,00.0,34.0,27.0,08.4,0000.0,0008.93,0005.57,0005.37
2022-01-26 22:27:00,,0824.0,5.00,0.00,25.1,24.4,00.0,34.0,27.0,08.2,0000.0,0009.02,0005.64,0005.43
2022-01-26 22:28:00,,0824.1,5.00,0.00,25.1,24.4,00.0,34.0,27.1,08.1,0000.0,0009.09,0005.69,0005.48
2022-01-26 22:29:00,,0824.1,5.00,0.00,25.2,24.4,00.0,34.0,27.1,08.2,0000.0,0009.12,0005.75,0005.53
2022-01-26 22:30:00,,0824.1,5.01,0.00,25.2,24.4,00.0,34.0,27.1,08.2,0000.0,0009.13,0005.77,0005.55
2022-01-26 22:31:00,,0824.1,4.99,0.00,25.2,24.5,00.0,34.0,27.1,08.3,0000.0,0009.16,0005.78,0005.55
2022-01-26 22:32:00,,0824.1,5.00,0.00,25.2,24.5,00.0,34.0,27.1,08.4,0000.0,0009.19,0005.77,0005.53
2022-01-26 22:33:00,,0824.0,5.00,0.00,25.2,24.5,00.0,34.0,27.1,08.5,0000.0,0009.18,0005.76,0005.51
2022-01-26 22:34:00,,0824.0,5.01,0.00,25.2,24.5,00.0,34.0,27.1,08.2,0000.0,0009.15,0005.73,0005.49
2022-01-26 22:35:00,,0824.0,4.98,0.00,25.2,24.5,00.0,34.0,27.2,08.3,0000.0,0008.73,0005.71,0005.47
2022-01-26 22:36:00,,0824.0,4.99,0.00,25.2,24.5,00.0,34.1,27.2,08.3,0000.0,0008.23,0005.73,0005.48
2022-01-26 22:37:00,,0824.1,5.01,0.00,25.3,24.5,00.0,34.1,27.2,08.3,0000.0,0008.22,0005.73,0005.48
2022-01-26 22:38:00,,0824.0,5.00,0.00,25.3,24.5,00.0,34.1,27.2,08.1,0000.0,0008.52,0005.73,0005.49
2022-01-26 22:39:00,,0824.1,5.00,0.00,25.3,24.6,00.0,34.1,27.2,08.1,0000.0,0008.71,0005.73,0005.48
2022-01-26 22:40:00,,0824.1,4.99,0.00,25.3,24.6,00.0,34.1,27.2,08.2,0000.0,0008.69,0005.73,0005.49
2022-01-26 22:41:00,,0824.2,5.01,0.00,25.3,24.6,00.0,34.1,27.2,08.2,0000.0,0009.14,0005.76,0005.50
2022-01-26 22:42:00,,0824.1,5.00,0.00,25.3,24.6,00.0,34.1,27.2,08.3,0000.0,0009.43,0005.78,0005.50
2022-01-26 22:43:00,,0824.2,4.98,0.00,25.3,24.6,00.0,34.1,27.2,08.3,0000.0,0009.57,0005.77,0005.52
2022-01-26 22:44:00,,0824.1,5.00,0.00,25.3,24.6,00.0,34.1,27.2,08.2,0000.0,0009.82,0005.78,0005.52
2022-01-26 22:45:00,,0824.1,5.00,0.00,25.3,24.6,00.0,34.1,27.2,08.2,0000.0,0009.85,0005.79,0005.52
2022-01-26 22:46:00,,0824.2,5.00,0.00,25.3,24.6,00.0,34.2,27.3,08.2,0000.0,0009.80,0005.79,0005.52
2022-01-26 22:47:00,,0824.2,4.98,0.00,25.3,24.6,00.0,34.2,27.3,08.2,0000.0,0009.86,0005.79,0005.53
2022-01-26 22:48:00,,0824.1,5.00,0.00,25.4,24.6,00.0,34.2,27.3,08.2,0000.0,0010.07,0005.81,0005.54
2022-01-26 22:49:00,,0824.1,5.00,0.00,25.4,24.6,00.0,34.2,27.3,08.3,0000.0,0009.98,0005.84,0005.55
2022-01-26 22:50:00,,0824.1,5.00,0.00,25.4,24.6,00.0,34.2,27.3,08.2,0000.0,0009.60,0005.85,0005.57
2022-01-26 22:51:00,,0824.1,5.00,0.00,25.4,24.6,00.0,34.2,27.3,08.2,0000.0,0009.63,0005.88,0005.58
2022-01-26 22:52:00,,0824.1,4.99,0.00,25.4,24.6,00.0,34.2,27.3,08.2,0000.0,0009.36,0005.87,0005.59
2022-01-26 22:53:00,,0824.1,5.02,0.00,25.4,24.6,00.0,34.2,27.3,08.1,0000.0,0009.46,0005.86,0005.61
2022-01-26 22:54:00,,0824.1,4.98,0.00,25.4,24.7,00.0,34.2,27.3,08.1,0000.0,0009.43,0005.87,0005.63
2022-01-26 22:55:00,,0824.1,5.00,0.00,25.4,24.7,00.0,34.2,27.3,08.1,0000.0,0009.02,0005.87,0005.64
2022-01-26 22:56:00,,0824.1,5.01,0.00,25.4,24.7,00.0,34.2,27.3,08.1,0000.0,0009.28,0005.90,0005.67
2022-01-26 22:57:00,,0824.2,4.99,0.00,25.4,24.7,00.0,34.2,27.3,08.2,0000.0,0009.45,0005.95,0005.69
2022-01-26 22:58:00,,0824.2,5.01,0.00,25.4,24.7,00.0,34.2,27.3,08.1,0000.0,0009.46,0005.96,0005.71
2022-01-26 22:59:00,,0824.2,5.00,0.00,25.4,24.7,00.0,34.3,27.3,08.1,0000.0,0009.30,0005.99,0005.74
